Regional Weather Roundup
Issued by NWS

Home | Current Version | Previous Version | Graphics & Text | Print | Product List | Glossary On
Versions: 1 2 3 4 5 6 7 8 9 10 11 12 13 14 15 16 17 18 19 20 21 22 23 24 25 26 27 28 29 30 31 32 33 34 35 36 37 38 39 40 41 42 43 44 45 46 47 48 49 50
000
ASUS45 KCYS 050010
RWRWY

WYOMING REGIONAL WEATHER ROUNDUP
NATIONAL WEATHER SERVICE CHEYENNE WY
600 PM MDT SAT JUL 04 2015

NOTE:  "FAIR" INDICATES FEW OR NO CLOUDS BELOW 12,000 FEET
WITH NO SIGNIFICANT WEATHER AND/OR OBSTRUCTIONS TO VISIBILITY.

WYZ001-050100-
YELLOWSTONE NATIONAL PARK

CITY           SKY/WX    TMP DP  RH WIND       PRES   REMARKS
LK YELLOWSTONE   N/A     80  34  19 VRB3      30.15F
6HR MIN TEMP:  69; 6HR MAX TEMP:  82;

W YELLOWSTONE  NOT AVBL

$$
WYZ002>013-054>058-071-098>099-050100-
NORTHERN WYOMING

CITY           SKY/WX    TMP DP  RH WIND       PRES   REMARKS
JACKSON        FAIR      84  43  23 SW10      30.02S
CODY           FAIR      91  43  18 E6        29.86F
GREYBULL       FAIR      98  32  10 VRB3      29.75F HX  92
6HR MIN TEMP:  89; 6HR MAX TEMP: 100;

WORLAND        FAIR      95  45  17 NE5       29.79F HX  91
6HR MIN TEMP:  87; 6HR MAX TEMP:  98;

SHERIDAN       FAIR      93  46  19 CALM      29.80F
6HR MIN TEMP:  91; 6HR MAX TEMP:  95;

BUFFALO        FAIR      90  49  24 S5        29.89F
6HR MIN TEMP:  86; 6HR MAX TEMP:  91;

GILLETTE       FAIR      90  46  21 E10       29.84F
6HR MIN TEMP:  89; 6HR MAX TEMP:  93;

HULETT         FAIR      88  54  31 E5        29.86F
NEWCASTLE      FAIR      90  37  15 MISG      29.86F

$$
WYZ014>020-022>026-101>103-050100-
CENTRAL WYOMING

CITY           SKY/WX    TMP DP  RH WIND       PRES   REMARKS
BIG PINEY      FAIR      87  29  12 NW13      30.07S
6HR MIN TEMP:  83; 6HR MAX TEMP:  91;

PINEDALE       FAIR      86  32  14 W15G23    30.07F
DUBOIS         FAIR      84  32  15 NW12G18   30.04F
LANDER         FAIR      93  42  17 NE7       29.87F
6HR MIN TEMP:  85; 6HR MAX TEMP:  95;

RIVERTON       FAIR      94  38  14 SE6       29.88F
6HR MIN TEMP:  82; 6HR MAX TEMP:  94;

CASPER         FAIR      94  39  14 N7        29.89F HX  90
6HR MIN TEMP:  87; 6HR MAX TEMP:  97;

DOUGLAS        FAIR      91  51  25 NE12      29.89F
6HR MIN TEMP:  87; 6HR MAX TEMP:  94;


$$
WYZ021-027>030-104>119-050100-
SOUTHERN WYOMING

CITY           SKY/WX    TMP DP  RH WIND       PRES   REMARKS
EVANSTON       PTSUNNY   83  44  25 NE6       30.11S
6HR MIN TEMP:  76; 6HR MAX TEMP:  87; 6HR PCP: TRACE;

KEMMERER       FAIR     N/A N/A N/A W9G16     30.12S
FORT BRIDGER   MOCLDY    84  39  20 W8        30.14S
ROCK SPRINGS   FAIR      86  42  21 W15G23    30.05S
6HR MIN TEMP:  82; 6HR MAX TEMP:  88;

DIXON          FAIR      84  46  26 S8        30.09S
RAWLINS        PTSUNNY   85  43  22 SW13G20   30.02F
6HR MIN TEMP:  80; 6HR MAX TEMP:  90; 6HR PCP: TRACE;

SARATOGA       CLOUDY    81  43  26 S8        30.10F
LARAMIE        FAIR      84  38  19 W13       30.09S
6HR MIN TEMP:  77; 6HR MAX TEMP:  87; 6HR PCP: TRACE;

CHEYENNE       FAIR      87  47  24 CALM      30.00F
6HR MIN TEMP:  86; 6HR MAX TEMP:  90;

TORRINGTON     FAIR      93  47  20 SW5       29.82F
6HR MIN TEMP:  84; 6HR MAX TEMP:  96;

PINE BLUFFS    FAIR      90  48  24 E13       29.93F

$$


USA.gov is the U.S. government's official web portal to all federal, state and local government web resources and services.